When you browse on this site, cookies collect data to enhance your experience and personalize the content and advertising you see.
Visit our Privacy Policy to learn more. By continuing to use the site, you agree to this use of cookies and data.
  • In Netherlands
  • List of Countries
  • For 7 days
  • Water Temperature
  • Satellite Maps
  • Weather Map
  • Weather Widgets
  • user-avatar
    Login

    Hourly Weather Sevilla

    Today, 18 January, Friday

    Time Temperature Precipitation Wind Pressure Humidity
    00:00 +15°C° 0 mm 7 mps 758 mmHg 64%
    01:00 +15°C° 0.1 mm 8 mps 758 mmHg 66%
    02:00 +15°C° 0.1 mm 9 mps 758 mmHg 68%
    03:00 +14°C° 0.1 mm 10 mps 758 mmHg 70%
    04:00 +13°C° 0.3 mm 10 mps 758 mmHg 70%
    05:00 +13°C° 0.3 mm 9 mps 758 mmHg 71%
    06:00 +13°C° 0 mm 9 mps 759 mmHg 72%
    07:00 +13°C° 0.8 mm 8 mps 759 mmHg 73%
    08:00 +13°C° 0.8 mm 8 mps 759 mmHg 74%
    09:00 +14°C° 0.8 mm 7 mps 759 mmHg 75%
    10:00 +14°C° 0.9 mm 6 mps 759 mmHg 75%
    11:00 +13°C° 0.9 mm 6 mps 759 mmHg 75%
    12:00 +13°C° 0.9 mm 5 mps 759 mmHg 75%
    13:00 +13°C° 1 mm 5 mps 759 mmHg 74%
    14:00 +13°C° 1 mm 4 mps 759 mmHg 74%
    15:00 +13°C° 1 mm 4 mps 759 mmHg 74%
    16:00 +13°C° 1 mm 4 mps 759 mmHg 74%
    17:00 +13°C° 1 mm 3 mps 759 mmHg 74%
    18:00 +13°C° 1 mm 3 mps 759 mmHg 74%
    19:00 +13°C° 1.2 mm 3 mps 759 mmHg 75%
    20:00 +14°C° 1.2 mm 2 mps 759 mmHg 76%
    21:00 +13°C° 1.2 mm 2 mps 760 mmHg 77%
    22:00 +13°C° 1.2 mm 2 mps 760 mmHg 77%
    23:00 +13°C° 1.2 mm 2 mps 760 mmHg 76%

    Tomorrow, 19 January, Saturday

    Time Temperature Precipitation Wind Pressure Humidity
    00:00 +14°C° 1.2 mm 2 mps 759 mmHg 76%
    01:00 +13°C° 1.2 mm 3 mps 759 mmHg 74%
    02:00 +13°C° 1.2 mm 4 mps 759 mmHg 72%
    03:00 +13°C° 1.2 mm 5 mps 759 mmHg 70%
    04:00 +13°C° 0.9 mm 6 mps 759 mmHg 70%
    05:00 +12°C° 0.9 mm 7 mps 759 mmHg 70%
    06:00 +12°C° 0.9 mm 8 mps 758 mmHg 70%
    07:00 +12°C° 0.9 mm 8 mps 759 mmHg 71%
    08:00 +12°C° 0.9 mm 8 mps 759 mmHg 71%
    09:00 +12°C° 0.9 mm 8 mps 759 mmHg 72%
    10:00 +12°C° 0.5 mm 8 mps 759 mmHg 72%
    11:00 +12°C° 0.5 mm 8 mps 759 mmHg 72%
    12:00 +12°C° 0.5 mm 8 mps 758 mmHg 72%
    13:00 +12°C° 0.4 mm 9 mps 758 mmHg 72%
    14:00 +12°C° 0.4 mm 9 mps 758 mmHg 72%
    15:00 +12°C° 0.4 mm 9 mps 758 mmHg 72%
    16:00 +12°C° 0.3 mm 8 mps 758 mmHg 70%
    17:00 +13°C° 0.3 mm 8 mps 758 mmHg 68%
    18:00 +13°C° 0.3 mm 8 mps 758 mmHg 65%
    19:00 +13°C° 0.2 mm 8 mps 759 mmHg 65%
    20:00 +13°C° 0.2 mm 8 mps 759 mmHg 64%
    21:00 +14°C° 0.2 mm 7 mps 759 mmHg 64%
    22:00 +14°C° 0.1 mm 7 mps 759 mmHg 64%
    23:00 +14°C° 0.1 mm 7 mps 758 mmHg 64%

    Day after tomorrow, 20 January, Sunday

    Time Temperature Precipitation Wind Pressure Humidity
    00:00 +14°C° 0.1 mm 7 mps 758 mmHg 64%
    01:00 +14°C° 0 mm 6 mps 758 mmHg 63%
    02:00 +14°C° 0 mm 5 mps 758 mmHg 62%
    03:00 +14°C° 0 mm 5 mps 757 mmHg 60%
    04:00 +14°C° 0 mm 5 mps 757 mmHg 59%
    05:00 +14°C° 0 mm 5 mps 757 mmHg 59%
    06:00 +14°C° 0 mm 5 mps 757 mmHg 58%
    07:00 +14°C° 0 mm 5 mps 756 mmHg 58%
    08:00 +14°C° 0 mm 6 mps 756 mmHg 58%
    09:00 +14°C° 0 mm 7 mps 756 mmHg 58%
    10:00 +14°C° 0.1 mm 6 mps 755 mmHg 57%
    11:00 +14°C° 0.1 mm 5 mps 755 mmHg 56%
    12:00 +14°C° 0.1 mm 4 mps 754 mmHg 55%
    13:00 +13°C° 0.8 mm 4 mps 754 mmHg 63%
    14:00 +13°C° 0.8 mm 4 mps 753 mmHg 71%
    15:00 +12°C° 0.8 mm 4 mps 753 mmHg 79%
    16:00 +12°C° 0.7 mm 4 mps 753 mmHg 78%
    17:00 +13°C° 0.7 mm 4 mps 753 mmHg 77%
    18:00 +13°C° 0.7 mm 4 mps 753 mmHg 76%
    19:00 +13°C° 0.1 mm 5 mps 754 mmHg 76%
    20:00 +13°C° 0.1 mm 6 mps 754 mmHg 76%
    21:00 +14°C° 0.1 mm 7 mps 754 mmHg 76%
    22:00 +13°C° 0.7 mm 9 mps 754 mmHg 76%
    23:00 +13°C° 0.7 mm 10 mps 754 mmHg 76%

    21 January, Monday

    Time Temperature Precipitation Wind Pressure Humidity
    00:00 +13°C° 0.7 mm 12 mps 754 mmHg 76%
    01:00 +13°C° 0.5 mm 12 mps 753 mmHg 76%
    02:00 +13°C° 0.5 mm 12 mps 753 mmHg 77%
    03:00 +13°C° 0.5 mm 12 mps 753 mmHg 77%
    04:00 +13°C° 0.5 mm 13 mps 753 mmHg 77%
    05:00 +13°C° 0.5 mm 14 mps 754 mmHg 78%
    06:00 +13°C° 0.5 mm 14 mps 754 mmHg 79%
    07:00 +11°C° 0.7 mm 15 mps 755 mmHg 79%
    08:00 +11°C° 0.7 mm 15 mps 755 mmHg 78%
    09:00 +11°C° 0.7 mm 15 mps 756 mmHg 78%
    10:00 +12°C° 0.8 mm 14 mps 756 mmHg 77%
    11:00 +12°C° 0.8 mm 12 mps 757 mmHg 77%
    12:00 +12°C° 0.8 mm 11 mps 757 mmHg 76%
    13:00 +12°C° 1 mm 11 mps 757 mmHg 74%
    14:00 +12°C° 1 mm 10 mps 758 mmHg 72%
    15:00 +12°C° 1 mm 10 mps 758 mmHg 71%
    16:00 +12°C° 0.7 mm 9 mps 759 mmHg 71%
    17:00 +12°C° 0.7 mm 9 mps 759 mmHg 70%
    18:00 +12°C° 0.7 mm 8 mps 760 mmHg 70%
    19:00 +12°C° 0.7 mm 8 mps 760 mmHg 70%
    20:00 +12°C° 0.7 mm 7 mps 761 mmHg 69%
    21:00 +12°C° 0.7 mm 7 mps 761 mmHg 69%
    22:00 +12°C° 0.7 mm 7 mps 761 mmHg 69%
    23:00 +11°C° 0.7 mm 6 mps 761 mmHg 68%

    22 January, Tuesday

    Time Temperature Precipitation Wind Pressure Humidity
    00:00 +11°C° 0.7 mm 6 mps 761 mmHg 68%
    01:00 +11°C° 0.6 mm 6 mps 761 mmHg 68%
    02:00 +11°C° 0.6 mm 7 mps 761 mmHg 67%
    03:00 +11°C° 0.6 mm 7 mps 761 mmHg 67%
    04:00 +11°C° 0.6 mm 7 mps 761 mmHg 67%
    05:00 +11°C° 0.6 mm 7 mps 761 mmHg 67%
    06:00 +11°C° 0.6 mm 8 mps 762 mmHg 67%
    07:00 +11°C° 0.6 mm 7 mps 762 mmHg 66%
    08:00 +11°C° 0.6 mm 7 mps 762 mmHg 65%
    09:00 +11°C° 0.6 mm 7 mps 762 mmHg 64%
    10:00 +11°C° 0.3 mm 7 mps 762 mmHg 63%
    11:00 +11°C° 0.3 mm 6 mps 762 mmHg 62%
    12:00 +11°C° 0.3 mm 6 mps 762 mmHg 61%
    13:00 +11°C° 0.4 mm 6 mps 761 mmHg 62%
    14:00 +11°C° 0.4 mm 6 mps 761 mmHg 63%
    15:00 +11°C° 0.4 mm 6 mps 760 mmHg 65%
    16:00 +11°C° 0.3 mm 7 mps 760 mmHg 65%
    17:00 +11°C° 0.3 mm 8 mps 760 mmHg 66%
    18:00 +11°C° 0.3 mm 8 mps 760 mmHg 67%
    19:00 +11°C° 0.4 mm 9 mps 759 mmHg 68%
    20:00 +11°C° 0.4 mm 10 mps 759 mmHg 68%
    21:00 +11°C° 0.4 mm 10 mps 759 mmHg 69%
    22:00 +11°C° 0.4 mm 11 mps 758 mmHg 68%
    23:00 +12°C° 0.4 mm 13 mps 757 mmHg 68%

    23 January, Wednesday

    Time Temperature Precipitation Wind Pressure Humidity
    00:00 +12°C° 0.4 mm 14 mps 757 mmHg 68%
    01:00 +11°C° 0.6 mm 15 mps 756 mmHg 70%
    02:00 +11°C° 0.6 mm 15 mps 755 mmHg 71%
    03:00 +10°C° 0.6 mm 16 mps 754 mmHg 73%
    04:00 +10°C° 2.2 mm 16 mps 754 mmHg 74%
    05:00 +11°C° 2.2 mm 16 mps 753 mmHg 75%
    06:00 +11°C° 2.2 mm 16 mps 753 mmHg 76%
    07:00 +11°C° 1.7 mm 15 mps 753 mmHg 74%
    08:00 +12°C° 1.7 mm 14 mps 753 mmHg 71%
    09:00 +12°C° 1.7 mm 13 mps 753 mmHg 68%
    10:00 +13°C° 0.4 mm 14 mps 753 mmHg 67%
    11:00 +13°C° 0.4 mm 14 mps 752 mmHg 66%
    12:00 +13°C° 0.4 mm 14 mps 752 mmHg 65%
    13:00 +13°C° 0.1 mm 15 mps 751 mmHg 65%
    14:00 +13°C° 0.1 mm 16 mps 750 mmHg 65%
    15:00 +13°C° 0.1 mm 17 mps 750 mmHg 65%
    16:00 +12°C° 0 mm 18 mps 749 mmHg 65%
    17:00 +14°C° 0 mm 19 mps 749 mmHg 65%
    18:00 +14°C° 0 mm 19 mps 748 mmHg 66%
    19:00 +14°C° 0.1 mm 20 mps 748 mmHg 65%
    20:00 +14°C° 0.1 mm 20 mps 747 mmHg 65%
    21:00 +14°C° 0.1 mm 21 mps 747 mmHg 64%
    22:00 +14°C° 0 mm 22 mps 746 mmHg 65%
    23:00 +13°C° 0 mm 23 mps 745 mmHg 65%
    Show more